GACFB EGPO-EGEI

Flight info

Callsign GACFB
Flight time 0h 41m
Altitude 5000
Route 5810N00619W DCT 5719N00552W 5717N00544W DCT 5715N00549W
Aircraft C172/L-SDFG/C

Departure

Time 2026-05-05 17:45
Airport Stornoway Airport (EGPO)

Arrival

Time 2026-05-05 18:26
Airport Broadford Airstrip (EGEI)
Time Latitude Longitude Altitude Speed Heading
2026-05-05 17:45 58.19622 -6.33824 862 ft 98 kts 190°
2026-05-05 17:46 58.19076 -6.34011 1065 ft 99 kts 190°
2026-05-05 17:46 58.18396 -6.34246 1317 ft 99 kts 190°
2026-05-05 17:46 58.17703 -6.34486 1490 ft 105 kts 190°
2026-05-05 17:46 58.16964 -6.34732 1670 ft 108 kts 188°
2026-05-05 17:47 58.16206 -6.34760 1846 ft 110 kts 175°
2026-05-05 17:47 58.15453 -6.34523 2021 ft 111 kts 167°
2026-05-05 17:47 58.14709 -6.34137 2197 ft 111 kts 163°
2026-05-05 17:47 58.13976 -6.33687 2371 ft 111 kts 161°
2026-05-05 17:48 58.13246 -6.33210 2546 ft 111 kts 161°
2026-05-05 17:48 58.12512 -6.32718 2722 ft 111 kts 160°
2026-05-05 17:48 58.11788 -6.32229 2896 ft 111 kts 160°
2026-05-05 17:48 58.11069 -6.31741 3070 ft 110 kts 160°
2026-05-05 17:49 58.10350 -6.31252 3244 ft 110 kts 160°
2026-05-05 17:49 58.09638 -6.30768 3418 ft 109 kts 160°
2026-05-05 17:49 58.08920 -6.30280 3594 ft 109 kts 160°
2026-05-05 17:49 58.08209 -6.29798 3768 ft 108 kts 160°
2026-05-05 17:50 58.07503 -6.29318 3940 ft 108 kts 160°
2026-05-05 17:50 58.06765 -6.28818 3996 ft 117 kts 160°
2026-05-05 17:50 58.05979 -6.28287 4002 ft 125 kts 160°
2026-05-05 17:50 58.05141 -6.27720 4001 ft 128 kts 160°
2026-05-05 17:51 58.04301 -6.27153 4000 ft 130 kts 160°
2026-05-05 17:51 58.03442 -6.26572 4000 ft 131 kts 160°
2026-05-05 17:51 58.02586 -6.25993 4000 ft 131 kts 160°
2026-05-05 17:51 58.01725 -6.25411 4000 ft 131 kts 160°
2026-05-05 17:52 58.00864 -6.24829 4000 ft 131 kts 160°
2026-05-05 17:52 58.00009 -6.24251 4000 ft 131 kts 160°
2026-05-05 17:52 57.99147 -6.23669 3999 ft 131 kts 160°
2026-05-05 17:52 57.98277 -6.23082 3999 ft 131 kts 160°
2026-05-05 17:53 57.97416 -6.22501 3999 ft 131 kts 160°
2026-05-05 17:53 57.96559 -6.21923 3999 ft 131 kts 160°
2026-05-05 17:53 57.95699 -6.21344 3999 ft 131 kts 160°
2026-05-05 17:53 57.94839 -6.20764 3999 ft 131 kts 160°
2026-05-05 17:54 57.93998 -6.20201 3995 ft 121 kts 161°
2026-05-05 17:54 57.93243 -6.19696 3995 ft 110 kts 160°
2026-05-05 17:54 57.92554 -6.19234 3996 ft 103 kts 160°
2026-05-05 17:54 57.91889 -6.18786 3997 ft 99 kts 160°
2026-05-05 17:55 57.91256 -6.18360 3998 ft 96 kts 160°
2026-05-05 17:55 57.90629 -6.17938 3998 ft 94 kts 160°
2026-05-05 17:55 57.90019 -6.17528 3999 ft 93 kts 160°
2026-05-05 17:55 57.89410 -6.17120 3999 ft 92 kts 160°
2026-05-05 17:56 57.88810 -6.16716 3999 ft 92 kts 160°
2026-05-05 17:56 57.88213 -6.16316 3999 ft 91 kts 160°
2026-05-05 17:56 57.87615 -6.15915 3999 ft 91 kts 160°
2026-05-05 17:56 57.87012 -6.15511 3999 ft 91 kts 160°
2026-05-05 17:57 57.86419 -6.15114 3999 ft 91 kts 160°
2026-05-05 17:57 57.85825 -6.14716 3999 ft 91 kts 160°
2026-05-05 17:57 57.85233 -6.14320 3999 ft 91 kts 160°
2026-05-05 17:57 57.84632 -6.13918 3999 ft 91 kts 160°
2026-05-05 17:58 57.84042 -6.13522 3999 ft 90 kts 160°
2026-05-05 17:58 57.83444 -6.13118 3999 ft 90 kts 160°
2026-05-05 17:58 57.82856 -6.12720 3999 ft 90 kts 160°
2026-05-05 17:58 57.82262 -6.12318 3999 ft 90 kts 160°
2026-05-05 17:59 57.81665 -6.11913 3999 ft 90 kts 160°
2026-05-05 17:59 57.81076 -6.11515 3999 ft 90 kts 160°
2026-05-05 17:59 57.80478 -6.11111 3999 ft 90 kts 160°
2026-05-05 17:59 57.79891 -6.10714 3999 ft 90 kts 160°
2026-05-05 18:00 57.79292 -6.10309 3999 ft 90 kts 160°
2026-05-05 18:00 57.78701 -6.09910 3999 ft 90 kts 160°
2026-05-05 18:00 57.78110 -6.09511 3999 ft 90 kts 160°
2026-05-05 18:00 57.77517 -6.09110 3999 ft 90 kts 160°
2026-05-05 18:01 57.76923 -6.08709 3999 ft 90 kts 160°
2026-05-05 18:01 57.76327 -6.08307 3999 ft 90 kts 160°
2026-05-05 18:01 57.75735 -6.07910 3999 ft 90 kts 160°
2026-05-05 18:01 57.75141 -6.07514 3999 ft 90 kts 160°
2026-05-05 18:02 57.74546 -6.07118 3999 ft 90 kts 160°
2026-05-05 18:02 57.73950 -6.06724 3999 ft 90 kts 160°
2026-05-05 18:02 57.73356 -6.06332 3999 ft 90 kts 160°
2026-05-05 18:02 57.72763 -6.05939 3999 ft 90 kts 160°
2026-05-05 18:03 57.72169 -6.05540 3999 ft 90 kts 160°
2026-05-05 18:03 57.71576 -6.05137 4000 ft 90 kts 160°
2026-05-05 18:03 57.70983 -6.04732 4000 ft 91 kts 160°
2026-05-05 18:03 57.70388 -6.04324 4000 ft 91 kts 160°
2026-05-05 18:04 57.69795 -6.03918 4000 ft 91 kts 160°
2026-05-05 18:04 57.69210 -6.03520 4000 ft 91 kts 160°
2026-05-05 18:04 57.68615 -6.03118 3999 ft 91 kts 160°
2026-05-05 18:04 57.68021 -6.02719 4000 ft 91 kts 160°
2026-05-05 18:05 57.67429 -6.02321 4000 ft 91 kts 160°
2026-05-05 18:05 57.66832 -6.01920 4000 ft 91 kts 160°
2026-05-05 18:05 57.66234 -6.01518 4000 ft 91 kts 160°
2026-05-05 18:05 57.65642 -6.01121 4000 ft 91 kts 160°
2026-05-05 18:06 57.65048 -6.00723 4000 ft 91 kts 160°
2026-05-05 18:06 57.64653 -6.00458 4000 ft 91 kts 160°
2026-05-05 18:06 57.63859 -5.99926 4000 ft 91 kts 160°
2026-05-05 18:06 57.63265 -5.99528 4000 ft 91 kts 160°
2026-05-05 18:07 57.62661 -5.99124 3947 ft 97 kts 160°
2026-05-05 18:07 57.61984 -5.98672 3782 ft 109 kts 160°
2026-05-05 18:07 57.61237 -5.98176 3610 ft 116 kts 160°
2026-05-05 18:07 57.60474 -5.97667 3439 ft 119 kts 160°
2026-05-05 18:08 57.59684 -5.97140 3264 ft 121 kts 160°
2026-05-05 18:08 57.58895 -5.96614 3091 ft 122 kts 160°
2026-05-05 18:08 57.58116 -5.96093 3007 ft 115 kts 160°
2026-05-05 18:08 57.57391 -5.95608 2997 ft 107 kts 160°
2026-05-05 18:09 57.56700 -5.95181 2971 ft 104 kts 162°
2026-05-05 18:09 57.55991 -5.94768 2861 ft 108 kts 163°
2026-05-05 18:09 57.55262 -5.94351 2762 ft 110 kts 163°
2026-05-05 18:09 57.54524 -5.93931 2663 ft 111 kts 163°
2026-05-05 18:10 57.53785 -5.93512 2563 ft 111 kts 163°
2026-05-05 18:10 57.53040 -5.93089 2463 ft 112 kts 163°
2026-05-05 18:10 57.52300 -5.92669 2364 ft 112 kts 163°
2026-05-05 18:10 57.51553 -5.92257 2287 ft 110 kts 165°
2026-05-05 18:11 57.50823 -5.91880 2240 ft 107 kts 162°
2026-05-05 18:11 57.50133 -5.91470 2213 ft 103 kts 162°
2026-05-05 18:11 57.49453 -5.91069 2186 ft 102 kts 162°
2026-05-05 18:11 57.48780 -5.90681 2160 ft 100 kts 162°
2026-05-05 18:12 57.48110 -5.90298 2134 ft 100 kts 163°
2026-05-05 18:12 57.47451 -5.89923 2109 ft 99 kts 163°
2026-05-05 18:12 57.46792 -5.89550 2084 ft 99 kts 163°
2026-05-05 18:12 57.46128 -5.89174 2059 ft 99 kts 163°
2026-05-05 18:13 57.45473 -5.88804 2034 ft 99 kts 163°
2026-05-05 18:13 57.44819 -5.88434 2009 ft 99 kts 163°
2026-05-05 18:13 57.44157 -5.88061 1984 ft 99 kts 163°
2026-05-05 18:13 57.43500 -5.87691 1959 ft 98 kts 163°
2026-05-05 18:14 57.42849 -5.87323 1934 ft 98 kts 163°
2026-05-05 18:14 57.42186 -5.86950 1909 ft 98 kts 163°
2026-05-05 18:14 57.41544 -5.86588 1900 ft 97 kts 163°
2026-05-05 18:14 57.40897 -5.86223 1899 ft 95 kts 163°
2026-05-05 18:15 57.40267 -5.85868 1899 ft 94 kts 163°
2026-05-05 18:15 57.39643 -5.85516 1899 ft 94 kts 163°
2026-05-05 18:15 57.39019 -5.85165 1899 ft 93 kts 163°
2026-05-05 18:15 57.38396 -5.84814 1899 ft 93 kts 163°
2026-05-05 18:16 57.37781 -5.84469 1899 ft 93 kts 163°
2026-05-05 18:16 57.37163 -5.84121 1899 ft 93 kts 163°
2026-05-05 18:16 57.36543 -5.83772 1899 ft 93 kts 162°
2026-05-05 18:16 57.36026 -5.83087 1899 ft 92 kts 129°
2026-05-05 18:17 57.35689 -5.82079 1900 ft 92 kts 116°
2026-05-05 18:17 57.35440 -5.80987 1900 ft 92 kts 110°
2026-05-05 18:17 57.35233 -5.79861 1900 ft 92 kts 107°
2026-05-05 18:17 57.35033 -5.78654 1780 ft 104 kts 106°
2026-05-05 18:18 57.34826 -5.77306 1611 ft 113 kts 104°
2026-05-05 18:18 57.34731 -5.75875 1512 ft 111 kts 92°
2026-05-05 18:18 57.34721 -5.74478 1498 ft 104 kts 89°
2026-05-05 18:18 57.34736 -5.73163 1497 ft 100 kts 88°
2026-05-05 18:19 57.34758 -5.71851 1398 ft 106 kts 88°
2026-05-05 18:19 57.34783 -5.70429 1269 ft 109 kts 88°
2026-05-05 18:19 57.34806 -5.69246 1323 ft 97 kts 88°
2026-05-05 18:19 57.34659 -5.68005 1078 ft 102 kts 122°
2026-05-05 18:20 57.34145 -5.67338 993 ft 84 kts 165°
2026-05-05 18:20 57.33622 -5.67485 938 ft 66 kts 214°
2026-05-05 18:20 57.33261 -5.68058 943 ft 67 kts 214°
2026-05-05 18:20 57.32844 -5.68325 1021 ft 62 kts 194°
2026-05-05 18:21 57.32478 -5.68656 1116 ft 55 kts 208°
2026-05-05 18:21 57.32125 -5.68844 1145 ft 62 kts 199°
2026-05-05 18:21 57.31787 -5.69354 1197 ft 64 kts 228°
2026-05-05 18:21 57.31501 -5.70049 1230 ft 72 kts 225°
2026-05-05 18:22 57.31121 -5.70626 1414 ft 67 kts 206°
2026-05-05 18:22 57.30700 -5.71057 1554 ft 70 kts 207°
2026-05-05 18:22 57.30267 -5.71487 1590 ft 74 kts 212°
2026-05-05 18:22 57.29848 -5.71928 1612 ft 72 kts 208°
2026-05-05 18:23 57.29405 -5.72340 1609 ft 69 kts 202°
2026-05-05 18:23 57.28927 -5.72605 1541 ft 70 kts 191°
2026-05-05 18:23 57.28435 -5.72757 1384 ft 73 kts 195°
2026-05-05 18:23 57.28004 -5.73210 1227 ft 72 kts 222°
2026-05-05 18:24 57.27703 -5.73981 1065 ft 72 kts 240°
2026-05-05 18:24 57.27475 -5.74786 906 ft 73 kts 244°
2026-05-05 18:24 57.27354 -5.75684 746 ft 72 kts 265°
2026-05-05 18:24 57.27253 -5.76576 598 ft 72 kts 246°
2026-05-05 18:25 57.27012 -5.77373 491 ft 70 kts 238°
2026-05-05 18:25 57.26837 -5.77892 426 ft 71 kts 238°
2026-05-05 18:25 57.26496 -5.78925 341 ft 70 kts 238°
2026-05-05 18:25 57.26256 -5.79718 278 ft 70 kts 241°
2026-05-05 18:26 57.26020 -5.80447 291 ft 57 kts 238°
2026-05-05 18:26 57.25796 -5.81172 207 ft 66 kts 240°
2026-05-05 18:26 57.25583 -5.81887 72 ft 60 kts 241°
2026-05-05 18:26 57.25408 -5.82480 27 ft 43 kts 237°
2026-05-05 18:27 57.25340 -5.82700 30 ft 17 kts 275°
2026-05-05 18:27 57.25357 -5.82658 29 ft 17 kts 71°
2026-05-05 18:27 57.25373 -5.82525 27 ft 10 kts 137°
2026-05-05 18:27 57.25326 -5.82500 27 ft 1 kts 68°